Beaumont, TX

12:26 AM CDT on August 24, 2017 (GMT -0500)
Southeast Texas Regional

Weather History for KBPT - February, 2012

Change the Weather History Date:

Sunday, February 5, 2012

  Actual Average Record
Temperature  
Mean Temperature 53 °F 54 °F  
Max Temperature 58 °F 64 °F 82 °F (1921)
Min Temperature 48 °F 45 °F 22 °F (2011)
Degree Days  
Heating Degree Days 12 11  
Month to date heating degree days 12 57  
Since 1 July heating degree days 649 1000  
Cooling Degree Days 0 0  
Month to date cooling degree days 13 0  
Year to date cooling degree days 61 11  
Growing Degree Days 2 (Base 50)    
Moisture  
Dew Point 43 °F    
Average Humidity 74    
Maximum Humidity 80    
Minimum Humidity 68    
Precipitation  
Precipitation 0.01 in 0.12 in 2.20 in (1955)
Month to date precipitation 2.88 0.68  
Year to date precipitation 9.15 5.94  
Snow  
Snow 0.00 in 0.00 in T in (1988)
Month to date snowfall 0.0 0.0  
Since 1 July snowfall 0.0 T  
Snow Depth 0.00 in    
Sea Level Pressure  
Sea Level Pressure 30.23 in    
Wind  
Wind Speed 15 mph (North)    
Max Wind Speed 23 mph    
Max Gust Speed 29 mph    
Visibility 10 miles    
Events Rain    
T = Trace of Precipitation, MM = Missing Value Source: NWS Daily Summary

Daily Weather History Graph

Daily Weather History Graph

Search for Another Location

Airport or City:

Trip Planner

Search our weather history database for the weather conditions in past years. The results will help you decide how hot, cold, wet, or windy it might be!

Date:

Astronomy

Feb. 05, 2012 Rise Set
Actual Time 7:04 AM CST 5:56 PM CST
Civil Twilight 6:39 AM CST 6:21 PM CST
Nautical Twilight 6:10 AM CST 6:49 PM CST
Astronomical Twilight 5:42 AM CST 7:17 PM CST
Moon 4:00 PM CST (2/5) 5:09 AM CST (2/5)
Length of Visible Light 11h 42m
Length of Day
10h 52m
Waxing Gibbous, 95% of the Moon is Illuminated
Feb 5
Waxing Gibbous
Feb 7
Full
Feb 14
Last Quarter
Feb 21
New
Feb 29
First Quarter

Hourly Weather History & Observations

Time (CST) Temp. Dew Point Humidity Pressure Visibility Wind Dir Wind Speed Gust Speed Precip Events Conditions
12:53 AM 57.0 °F 48.0 °F 72% 30.17 in 10.0 mi North 17.3 mph - N/A   Overcast
1:53 AM 55.9 °F 46.9 °F 72% 30.17 in 10.0 mi North 19.6 mph 25.3 mph N/A   Overcast
2:53 AM 55.0 °F 46.9 °F 74% 30.17 in 10.0 mi North 20.7 mph 26.5 mph N/A   Overcast
3:53 AM 54.0 °F 46.0 °F 75% 30.17 in 10.0 mi North 17.3 mph 25.3 mph N/A   Overcast
4:53 AM 53.1 °F 45.0 °F 74% 30.17 in 10.0 mi North 18.4 mph 25.3 mph N/A   Overcast
5:53 AM 51.1 °F 43.0 °F 74% 30.19 in 10.0 mi North 18.4 mph 26.5 mph N/A   Mostly Cloudy
6:53 AM 50.0 °F 43.0 °F 77% 30.24 in 10.0 mi North 11.5 mph - 0.00 in Rain Light Rain
7:53 AM 50.0 °F 43.0 °F 77% 30.25 in 10.0 mi North 13.8 mph - 0.00 in   Overcast
8:53 AM 48.9 °F 41.0 °F 74% 30.26 in 10.0 mi North 17.3 mph 25.3 mph 0.00 in   Scattered Clouds
9:53 AM 48.9 °F 41.0 °F 74% 30.28 in 10.0 mi North 18.4 mph - 0.00 in Rain Light Rain
10:53 AM 48.9 °F 41.0 °F 74% 30.30 in 10.0 mi North 12.7 mph - 0.00 in Rain Light Rain
11:53 AM 48.9 °F 42.1 °F 77% 30.28 in 10.0 mi North 12.7 mph - 0.00 in Rain Light Rain
12:53 PM 48.0 °F 42.1 °F 80% 30.24 in 10.0 mi North 15.0 mph - 0.01 in Rain Light Rain
1:53 PM 48.0 °F 42.1 °F 80% 30.22 in 10.0 mi North 17.3 mph - 0.00 in Rain Light Rain
2:53 PM 48.9 °F 42.1 °F 77% 30.21 in 10.0 mi North 17.3 mph - 0.00 in Rain Light Rain
3:53 PM 50.0 °F 42.1 °F 74% 30.21 in 10.0 mi North 13.8 mph 21.9 mph 0.00 in Rain Light Rain
4:53 PM 50.0 °F 41.0 °F 71% 30.22 in 10.0 mi North 13.8 mph - 0.00 in   Overcast
5:53 PM 50.0 °F 41.0 °F 71% 30.22 in 10.0 mi NNE 9.2 mph - N/A   Overcast
6:53 PM 51.1 °F 41.0 °F 68% 30.25 in 10.0 mi North 10.4 mph - N/A   Overcast
7:53 PM 51.1 °F 41.0 °F 68% 30.27 in 10.0 mi North 9.2 mph - N/A   Overcast
8:53 PM 50.0 °F 41.0 °F 71% 30.27 in 10.0 mi North 9.2 mph - N/A   Overcast
9:53 PM 50.0 °F 41.0 °F 71% 30.28 in 10.0 mi NNE 12.7 mph - N/A   Scattered Clouds
10:53 PM 48.9 °F 39.9 °F 71% 30.28 in 10.0 mi NNE 12.7 mph - N/A   Overcast
11:53 PM 48.9 °F 39.0 °F 69% 30.27 in 10.0 mi NNE 13.8 mph 21.9 mph N/A   Overcast